Marshfield, WI

8:11 AM CST on December 18, 2017 (GMT -0600)
Marshfield Municipal

Weather History for KMFI - January, 2013

Change the Weather History Date:

Friday, January 18, 2013

  Actual Average Record
Temperature  
Mean Temperature 24 °F -  
Max Temperature 41 °F 22 °F 43 °F (1944)
Min Temperature 8 °F 3 °F -32 °F (1967)
Degree Days  
Heating Degree Days 40    
Moisture  
Dew Point 15 °F    
Average Humidity 81    
Maximum Humidity 92    
Minimum Humidity 60    
Precipitation  
Precipitation 0.01 in - - ()
Sea Level Pressure  
Sea Level Pressure 30.05 in    
Wind  
Wind Speed 8 mph (South)    
Max Wind Speed 15 mph    
Max Gust Speed 21 mph    
Visibility 6 miles    
Events Snow    
Averages and records for this station are not official NWS values.
T = Trace of Precipitation, MM = Missing Value Source: NWS Daily Summary

Daily Weather History Graph

Daily Weather History Graph

Search for Another Location

Airport or City:

Trip Planner

Search our weather history database for the weather conditions in past years. The results will help you decide how hot, cold, wet, or windy it might be!

Date:

Astronomy

Jan. 18, 2013 Rise Set
Actual Time 7:32 AM CST 4:50 PM CST
Civil Twilight 7:00 AM CST 5:23 PM CST
Nautical Twilight 6:24 AM CST 5:58 PM CST
Astronomical Twilight 5:49 AM CST 6:33 PM CST
Moon 10:50 AM CST 12:00 AM CST
Length of Visible Light 10h 22m
Length of Day
9h 18m
Waxing Crescent, 47% of the Moon is Illuminated
Jan 18
Waxing Crescent
Jan 18
First Quarter
Jan 26
Full
Feb 3
Last Quarter
Feb 10
New

Hourly Weather History & Observations

Time (CST) Temp. Windchill Dew Point Humidity Pressure Visibility Wind Dir Wind Speed Gust Speed Precip Events Conditions
12:54 AM 8.1 °F 1.4 °F 3.9 °F 83% 30.39 in 10.0 mi SW 3.5 mph - N/A   Clear
1:54 AM 9.0 °F 2.4 °F 5.0 °F 84% 30.39 in 10.0 mi South 3.5 mph - N/A   Mostly Cloudy
2:54 AM 10.0 °F 0.4 °F 5.0 °F 80% 30.36 in 10.0 mi SSE 5.8 mph - N/A   Overcast
3:54 AM 10.9 °F -1.8 °F 5.0 °F 77% 30.33 in 4.0 mi South 9.2 mph - 0.00 in Snow Light Snow
4:03 AM 10.4 °F -3.3 °F 6.8 °F 85% 30.24 in 2.5 mi South 10.4 mph - 0.00 in Snow Light Snow
4:15 AM 10.4 °F -3.3 °F 6.8 °F 85% 30.24 in 1.8 mi South 10.4 mph - 0.00 in Snow Light Snow
4:54 AM 10.9 °F -0.8 °F 7.0 °F 84% 30.30 in 1.2 mi SSE 8.1 mph - 0.00 in Snow Light Snow
5:01 AM 10.4 °F -3.3 °F 6.8 °F 85% 30.20 in 1.0 mi SSE 10.4 mph - 0.00 in Snow Light Snow
5:07 AM 10.4 °F -0.4 °F 6.8 °F 85% 30.20 in 0.8 mi SSE 6.9 mph - 0.00 in Snow Light Snow
5:16 AM 10.4 °F -1.5 °F 6.8 °F 85% 30.19 in 1.0 mi SSE 8.1 mph - 0.00 in Snow Light Snow
5:42 AM 10.4 °F -3.3 °F 6.8 °F 85% 30.17 in 0.8 mi SSE 10.4 mph - 0.01 in Snow Light Snow
5:54 AM 10.9 °F -1.8 °F 7.0 °F 84% 30.25 in 1.0 mi SSE 9.2 mph - 0.01 in Snow Light Snow
5:59 AM 10.4 °F -2.4 °F 6.8 °F 85% 30.16 in 1.2 mi SSE 9.2 mph - 0.00 in Snow Light Snow
6:31 AM 10.4 °F -2.4 °F 6.8 °F 85% 30.14 in 2.0 mi SSE 9.2 mph - 0.00 in Snow Light Snow
6:41 AM 10.4 °F -4.8 °F 8.6 °F 92% 30.12 in 1.8 mi SSE 12.7 mph - 0.00 in Snow Light Snow
6:50 AM 10.4 °F -4.1 °F 8.6 °F 92% 30.12 in 2.0 mi SE 11.5 mph - 0.00 in Snow Light Snow
6:54 AM 10.9 °F -2.6 °F 8.1 °F 88% 30.20 in 1.8 mi SE 10.4 mph - 0.00 in Snow Light Snow
7:10 AM 12.2 °F -1.8 °F 8.6 °F 85% 30.09 in 2.5 mi SE 11.5 mph - 0.00 in Snow Light Snow
7:26 AM 12.2 °F -1.8 °F 8.6 °F 85% 30.07 in 1.8 mi SE 11.5 mph - 0.00 in Snow Light Snow
7:36 AM 12.2 °F -3.7 °F 8.6 °F 85% 30.06 in 3.0 mi SE 15.0 mph 20.7 mph 0.00 in Snow Light Snow
7:54 AM 12.9 °F -2.2 °F 9.0 °F 84% 30.12 in 8.0 mi SSE 13.8 mph - 0.00 in   Overcast
8:08 AM 12.2 °F -3.1 °F 8.6 °F 85% 30.03 in 9.0 mi SSE 13.8 mph - N/A   Overcast
8:54 AM 15.1 °F 0.5 °F 10.9 °F 84% 30.08 in 10.0 mi SSE 13.8 mph - N/A   Overcast
9:23 AM 17.6 °F 4.3 °F 12.2 °F 79% 29.98 in 10.0 mi SSE 12.7 mph 20.7 mph N/A   Mostly Cloudy
9:54 AM 19.0 °F 5.6 °F 14.0 °F 81% 30.04 in 10.0 mi South 13.8 mph - N/A   Overcast
10:54 AM 24.1 °F 12.0 °F 18.0 °F 77% 29.97 in 10.0 mi South 13.8 mph - N/A   Clear
11:54 AM 28.9 °F 21.1 °F 21.0 °F 72% 29.91 in 10.0 mi SSW 8.1 mph - N/A   Overcast
12:54 PM 36.0 °F 28.0 °F 26.1 °F 67% 29.83 in 10.0 mi SW 11.5 mph - N/A   Clear
1:54 PM 39.9 °F 33.9 °F 27.0 °F 60% 29.80 in 10.0 mi SW 9.2 mph - N/A   Clear
2:54 PM 41.0 °F 33.5 °F 28.0 °F 60% 29.79 in 10.0 mi SW 13.8 mph 20.7 mph N/A   Clear
3:54 PM 39.9 °F 33.9 °F 28.9 °F 65% 29.79 in 10.0 mi WSW 9.2 mph - N/A   Clear
4:54 PM 37.0 °F 31.0 °F 28.9 °F 73% 29.78 in 10.0 mi SW 8.1 mph - N/A   Clear
5:54 PM 36.0 °F 31.1 °F 28.9 °F 76% 29.78 in 10.0 mi SW 5.8 mph - N/A   Clear
6:54 PM 36.0 °F 30.3 °F 28.9 °F 76% 29.78 in 10.0 mi SW 6.9 mph - N/A   Clear
7:54 PM 35.1 °F 28.6 °F 28.9 °F 78% 29.78 in 10.0 mi SW 8.1 mph - N/A   Clear
8:54 PM 34.0 °F 27.2 °F 28.9 °F 82% 29.78 in 10.0 mi West 8.1 mph - N/A   Clear
9:54 PM 32.0 °F 26.4 °F 28.0 °F 85% 29.79 in 10.0 mi West 5.8 mph - N/A   Clear
10:54 PM 32.0 °F 24.2 °F 27.0 °F 82% 29.79 in 10.0 mi West 9.2 mph - N/A   Clear
11:54 PM 30.0 °F 23.2 °F 26.1 °F 85% 29.80 in 10.0 mi West 6.9 mph - N/A   Clear